EHI
0 0 0 0 0 0 0 0 0 0 0 0 0 0 0 0 0 0 0 0 0 0 0 0 0 0 0 0 0 0 0 0 0 0 0 0 1 1
0 0 0 0 0 0 0 0 0 0 0 0 0 0 0 0 0 0 0 0 0 0 0 0 0 0 0 0 0 0 0 0 0 0 0 0 0 1
0 0 0 0 0 0 0 0 0 0 0 0 0 0 0 0 0 0 0 0 0 0 0 0 0 0 0 0 0 0 0 0 0 0 0 1 0 0
0 0 0 0 0 0 0 0 0 0 0 0 0 0 0 0 0 0 0 0 0 0 0 0 0 0 0 0 0 0 0 0 0 0 0 0 0 0
0 0 0 0 0 0 0 0 0 0 0 0 0 0 0 0 0 0 0 0 0 0 0 0 0 0 0 0 0 0 0 0 0 0 0 0 0 0
0 0 0 0 0 0 0 0 0 0 0 0 0 0 0 0 0 0 0 0 0 0 0 0 0 0 0 0 0 0 0 0 0 0 0 0 0 0
0 0 0 0 0 0 0 0 0 0 0 0 0 0 0 0 0 0 0 0 0 0 0 0 0 0 0 0 0 0 0 0 0 0 0 0 0 0
0 0 0 0 0 0 0 0 0 0 0 0 0 0 0 0 0 0 0 0 0 0 0 0 0 0 0 0 0 0 0 0 0 0 0 0 0 0
0 0 0 0 0 0 0 0 0 0 0 0 0 0 0 0 0 0 0 0 0 0 0 0 0 0 0 0 0 0 0 0 0 0 0 0 0 0
0 0 0 0 0 0 0 0 0 0 0 0 0 0 0 0 0 0 0 0 0 0 0 0 0 0 0 0 0 0 0 0 0 0 0 0 0 0
0 0 0 0 0 0 0 0 0 0 0 0 0 0 0 0 0 0 0 0 0 0 0 0 0 0 0 0 0 0 0 0 0 0 0 0 0 0
0 0 0 0 0 0 0 0 0 0 0 0 0 0 0 0 0 0 0 0 0 0 0 0 0 0 0 0 0 0 0 0 0 0 0 0 0 0
0 0 0 0 0 0 0 0 0 0 0 0 0 0 0 0 0 0 0 0 0 0 0 0 0 0 0 0 0 0 0 0 0 0 0 0 0 0
0 0 0 0 0 0 0 0 0 0 0 0 0 0 0 0 0 0 0 0 0 0 0 0 0 0 0 0 0 0 0 0 0 0 0 0 0 0
0 0 0 0 0 0 0 0 0 0 0 0 0 0 0 0 0 0 0 0 0 0 0 0 0 0 0 0 0 0 0 0 0 0 0 0 0 0
0 0 0 0 0 0 0 0 0 0 0 0 0 0 0 0 0 0 0 0 0 0 0 0 0 0 0 0 0 0 0 0 0 0 0 0 0 0
0 0 0 0 0 0 0 0 0 0 0 0 0 0 0 0 0 0 0 0 0 0 0 0 0 0 0 0 0 0 0 0 0 0 0 0 0 0
0 0 0 0 0 0 0 0 0 0 0 0 0 0 0 0 0 0 0 0 0 0 0 0 0 0 0 0 0 0 0 0 0 0 0 0 0 0
0 0 0 0 0 0 0 0 0 0 0 0 0 0 0 0 0 0 0 0 0 0 0 0 0 0 0 0 0 0 0 0 0 0 0 0 0 0
0 0 0 0 0 0 0 0 0 0 0 0 0 0 0 0 0 0 0 0 0 0 0 0 0 0 0 0 0 0 0 0 0 0 0 0 0 0
0 0 0 0 0 0 0 0 0 0 0 0 0 0 0 0 0 0 0 0 0 0 0 0 0 0 0 0 0 0 0 0 0 0 0 0 0 0
0 0 0 0 0 0 0 0 0 0 0 0 0 0 0 0 0 0 0 0 0 0 0 0 0 0 0 0 0 0 0 0 0 0 0 0 0 0
0 0 0 0 0 0 0 0 0 0 0 0 0 0 0 0 0 0 0 0 0 0 0 0 0 0 0 0 0 0 0 0 0 0 0 0 0 0
Wind_Speed
2 2 2 2 1 2 2 3 3 4 4 3 2 2 2 2 4 3 3 7 8 9 9 9 9 10 9 9 8 8 8 9 9 9 10 11 11 12
2 2 2 1 1 1 2 2 2 3 4 3 3 2 2 3 5 4 4 8 9 9 9 9 9 7 7 8 9 8 8 8 9 9 10 10 11 11
1 2 2 2 1 1 1 1 2 2 4 4 2 2 2 3 3 3 3 3 4 8 8 9 7 6 6 8 8 7 7 8 8 9 9 10 10 10
2 2 2 1 2 1 1 2 2 2 3 4 3 2 3 3 3 3 3 3 2 5 6 5 5 6 6 6 6 6 7 7 8 8 8 9 9 10
2 2 2 2 2 1 2 2 2 2 1 2 3 2 2 2 2 3 3 2 3 3 4 3 3 4 5 5 6 7 7 7 7 8 8 8 8 9
2 2 2 2 2 2 2 2 2 1 1 2 2 2 2 2 1 2 3 2 3 3 3 3 3 4 5 6 6 6 6 6 7 7 7 7 8 9
1 1 1 2 3 2 1 2 2 1 1 1 2 2 2 1 2 1 2 2 3 2 1 1 2 2 3 4 5 6 7 7 7 7 7 8 8 9
1 1 1 2 2 1 2 2 1 1 1 1 1 2 3 2 1 1 1 2 3 1 1 2 1 2 2 2 5 7 7 7 7 7 8 8 8 9
1 1 0 1 1 1 2 3 2 3 3 2 2 3 2 2 1 2 2 2 2 2 1 2 1 2 2 3 7 7 7 7 7 8 8 9 9 9
0 1 1 0 1 1 1 1 1 2 3 2 1 2 2 1 2 2 1 1 1 1 0 1 2 2 3 2 5 6 7 7 8 8 9 9 9 9
0 0 0 1 1 1 1 1 2 2 3 3 3 2 3 2 1 1 0 1 1 1 1 1 1 2 2 2 3 6 7 8 8 8 9 10 9 9
1 0 1 1 0 1 0 1 0 1 2 2 3 3 3 2 2 1 1 0 0 1 1 0 0 2 3 2 2 2 4 6 8 9 10 10 10 5
1 1 1 2 2 2 1 0 0 1 1 2 2 2 2 2 2 2 1 0 1 1 1 0 1 1 1 2 3 2 2 3 3 4 7 9 10 8
0 0 1 2 2 3 2 2 2 2 1 2 2 2 2 2 2 2 2 2 1 1 2 1 1 1 1 2 3 3 2 2 3 3 3 6 7 9
1 1 2 3 3 2 2 3 2 1 1 2 2 2 2 2 2 2 3 3 3 3 2 1 1 1 1 1 2 3 3 3 3 3 3 4 4 4
2 2 4 4 3 3 3 3 1 1 1 1 1 1 2 2 2 2 2 2 3 3 3 3 1 0 0 1 2 3 3 2 3 3 4 3 3 3
1 1 2 2 2 2 2 2 1 2 2 1 1 1 2 2 2 2 2 2 2 2 3 3 3 2 1 1 1 2 2 2 3 3 3 4 3 3
2 1 1 1 1 1 1 2 1 1 1 1 1 1 1 1 2 2 2 2 2 2 2 2 3 3 2 2 1 1 2 2 3 3 2 3 4 4
2 1 1 1 1 1 1 1 1 1 1 1 1 1 1 1 1 1 1 2 2 2 2 2 2 2 2 3 3 2 1 3 3 3 2 2 3 5
1 1 1 1 1 1 1 0 0 1 1 1 1 1 1 1 1 1 1 1 1 2 2 2 2 2 1 2 3 3 4 3 2 3 3 3 3 5
1 1 1 1 1 1 1 0 0 0 0 0 0 0 1 1 1 1 1 1 1 1 2 3 3 4 2 1 1 2 3 4 3 3 3 3 3 3
1 1 1 1 1 1 0 0 0 0 0 0 0 0 0 0 0 1 1 1 1 1 2 2 3 3 2 1 1 2 3 4 5 5 4 2 1 2
1 1 1 1 1 1 0 0 0 0 0 0 0 0 0 0 0 0 0 1 1 1 2 2 3 2 2 1 1 2 3 4 4 4 3 4 4 4
Wind_Direction
227 231 244 248 245 253 244 235 237 271 278 264 265 268 264 265 271 270 263 273 279 280 282 281 281 286 289 291 287 291 295 297 298 300 298 298 301 306
223 222 250 255 251 258 247 258 255 256 277 281 270 280 284 289 281 282 267 280 281 279 278 276 278 279 287 294 291 291 298 300 303 302 300 301 304 308
227 214 241 255 244 255 254 255 261 257 272 293 297 303 296 295 295 287 277 270 276 279 280 278 273 279 286 291 291 298 297 303 307 305 304 306 309 313
219 209 226 249 246 250 249 256 253 254 252 276 294 306 304 305 309 304 304 294 281 294 301 288 286 287 287 291 299 307 310 311 309 310 310 311 314 316
220 211 220 224 248 252 251 252 252 260 253 263 289 302 304 315 328 326 327 323 313 310 313 321 327 334 333 323 320 319 320 317 315 315 315 316 318 321
226 214 217 223 238 237 238 235 232 244 261 265 278 297 304 322 336 333 334 342 324 325 333 334 348 351 344 336 334 334 335 333 330 329 329 329 329 331
211 210 230 244 257 249 241 225 211 216 237 269 286 306 311 319 312 320 320 331 317 309 340 347 350 355 345 338 338 341 341 341 338 338 341 341 340 337
193 204 247 257 276 299 315 298 254 228 239 263 289 293 296 299 323 310 320 334 316 336 25 332 353 330 331 341 345 345 345 342 343 347 347 344 342 341
192 190 272 316 352 13 351 351 341 314 302 290 273 282 285 278 270 300 300 298 292 307 334 316 351 328 331 349 350 347 349 354 359 359 354 349 347 345
187 181 160 71 339 357 27 12 342 327 318 316 270 276 282 253 229 249 266 315 329 327 18 333 350 340 342 346 352 354 1 7 5 0 358 356 351 346
83 114 130 160 258 332 56 50 7 351 341 343 347 351 352 349 360 71 27 23 347 350 47 88 359 355 351 348 360 11 11 6 2 359 357 357 354 350
56 66 7 18 309 350 63 124 340 329 351 3 16 23 28 30 23 37 136 96 343 318 15 61 339 356 348 348 354 360 10 4 360 359 358 358 355 351
55 22 19 11 1 2 4 82 217 3 31 51 50 39 33 30 30 31 45 154 231 258 278 313 309 358 310 311 332 343 356 353 355 355 355 355 353 351
85 17 30 24 16 17 11 30 41 40 54 63 53 34 27 18 18 29 41 42 18 278 294 275 234 241 275 299 307 330 349 352 352 348 348 347 347 347
82 50 35 30 16 17 30 26 28 59 68 63 46 24 14 13 23 35 43 47 37 17 357 340 258 260 255 269 297 314 329 342 354 349 343 340 335 335
50 55 41 34 23 26 27 14 22 62 73 68 44 17 17 29 30 26 27 24 36 25 19 17 0 331 307 295 285 301 315 318 333 337 332 332 332 331
59 55 41 28 23 24 25 29 34 45 53 55 56 41 34 28 23 23 26 28 48 19 7 12 15 9 308 264 303 305 315 315 314 323 332 335 332 329
55 54 33 19 4 7 13 10 17 41 53 60 56 48 40 27 18 18 22 35 36 20 9 356 2 9 11 9 315 285 313 310 313 322 318 326 328 332
53 48 5 331 332 351 344 337 6 42 67 68 56 45 41 32 24 17 22 30 26 7 349 345 355 6 9 345 336 342 309 313 318 323 322 312 309 317
34 6 328 327 336 333 321 336 40 48 68 69 55 45 49 39 23 13 20 24 11 358 351 352 1 356 317 291 303 316 325 308 312 316 315 305 293 303
351 332 318 318 323 328 325 2 88 62 69 64 47 46 40 30 20 20 23 18 15 6 353 339 323 324 305 307 312 315 326 334 323 303 307 316 322 334
304 303 307 305 303 300 306 54 74 80 92 89 31 20 12 26 32 18 13 359 4 355 334 327 333 341 359 27 332 318 327 337 345 346 342 318 298 326
294 296 297 297 281 256 219 155 138 103 89 101 61 10 11 16 14 34 31 24 21 5 353 349 351 358 1 13 5 342 339 339 338 349 355 357 354 332